Weather History for Louisville Bowman, KY

Change the Weather History Date:

Thursday, May 1, 2014

  Actual Average Record
Temperature  
Mean Temperature 56 °F 62 °F  
Max Temperature 64 °F 72 °F 92 °F (1951)
Min Temperature 48 °F 52 °F 31 °F (1963)
Degree Days  
Heating Degree Days 9 5  
Month to date heating degree days 9 5  
Since 1 July heating degree days 4650 4196  
Cooling Degree Days 0 1  
Month to date cooling degree days 0 1  
Year to date cooling degree days 34 35  
Growing Degree Days 6 (Base 50)    
Moisture  
Dew Point 39 °F    
Average Humidity 57    
Maximum Humidity 80    
Minimum Humidity 34    
Precipitation  
Precipitation T in 0.19 in 2.34 in (1983)
Month to date precipitation T 0.19  
Year to date precipitation 15.41 14.99  
Sea Level Pressure  
Sea Level Pressure 29.93 in    
Wind  
Wind Speed 10 mph (WSW)    
Max Wind Speed 22 mph    
Max Gust Speed 28 mph    
Visibility 10 miles    
Events      
T = Trace of Precipitation, MM = Missing Value Source: NWS Daily Summary

Daily Weather History Graph

Daily Weather History Graph

Search for Another Location

Airport:

Trip Planner

Search our weather history database for the weather conditions in past years. The results will help you decide how hot, cold, wet, or windy it might be!

Date:

Astronomy

May. 01, 2014 Rise Set
Actual Time 6:46 AM EDT 8:33 PM EDT
Civil Twilight 6:17 AM EDT 9:02 PM EDT
Nautical Twilight 5:43 AM EDT 9:37 PM EDT
Astronomical Twilight 5:06 AM EDT 10:14 PM EDT
Moon 8:33 AM EDT (5/1) 11:05 PM EDT (5/1)
Length of Visible Light 14h 44m
Length of Day
13h 47m
Waxing Crescent, 6% of the Moon is Illuminated
May 1
Waxing Crescent
May 6
First Quarter
May 14
Full
May 21
Last Quarter
May 28
New

Hourly Weather History & Observations

Time (EDT) Temp. Dew Point Humidity Pressure Visibility Wind Dir Wind Speed Gust Speed Precip Events Conditions
12:12 AM 53.1 °F 44.1 °F 71% 29.95 in 10.0 mi West 6.9 mph - N/A   Overcast
12:53 AM 53.1 °F 43.0 °F 69% 29.94 in 10.0 mi WSW 5.8 mph - N/A   Overcast
1:53 AM 53.1 °F 44.1 °F 71% 29.94 in 10.0 mi SW 6.9 mph - 0.00 in   Overcast
2:53 AM 53.1 °F 42.1 °F 66% 29.92 in 10.0 mi SW 5.8 mph - N/A   Overcast
3:53 AM 52.0 °F 42.1 °F 69% 29.93 in 10.0 mi SW 5.8 mph - N/A   Overcast
4:53 AM 50.0 °F 42.1 °F 74% 29.92 in 10.0 mi South 4.6 mph - N/A   Clear
5:53 AM 48.9 °F 42.1 °F 77% 29.93 in 10.0 mi South 5.8 mph - N/A   Clear
6:53 AM 48.9 °F 43.0 °F 80% 29.93 in 10.0 mi SSW 5.8 mph - N/A   Mostly Cloudy
7:53 AM 50.0 °F 43.0 °F 77% 29.94 in 10.0 mi SW 8.1 mph - N/A   Overcast
8:53 AM 52.0 °F 43.0 °F 71% 29.94 in 10.0 mi SW 9.2 mph - N/A   Overcast
9:53 AM 55.9 °F 42.1 °F 60% 29.94 in 10.0 mi SSW 11.5 mph - N/A   Clear
10:53 AM 57.0 °F 37.9 °F 49% 29.94 in 10.0 mi WSW 13.8 mph - N/A   Scattered Clouds
11:53 AM 57.9 °F 35.1 °F 42% 29.93 in 10.0 mi WSW 18.4 mph 25.3 mph N/A   Mostly Cloudy
12:53 PM 60.1 °F 35.1 °F 39% 29.92 in 10.0 mi WSW 9.2 mph - N/A   Mostly Cloudy
1:53 PM 61.0 °F 34.0 °F 36% 29.91 in 10.0 mi SW 18.4 mph 25.3 mph N/A   Overcast
2:53 PM 62.1 °F 35.1 °F 37% 29.91 in 10.0 mi SW 11.5 mph 21.9 mph N/A   Overcast
3:53 PM 63.0 °F 35.1 °F 35% 29.91 in 10.0 mi West 15.0 mph 21.9 mph N/A   Overcast
4:53 PM 62.1 °F 34.0 °F 35% 29.91 in 10.0 mi WSW 12.7 mph 24.2 mph N/A   Overcast
5:53 PM 62.1 °F 36.0 °F 38% 29.91 in 10.0 mi WSW 13.8 mph 18.4 mph N/A   Overcast
6:53 PM 61.0 °F 35.1 °F 38% 29.91 in 10.0 mi West 13.8 mph 21.9 mph N/A   Overcast
7:53 PM 60.1 °F 36.0 °F 41% 29.92 in 10.0 mi West 9.2 mph - N/A   Overcast
8:53 PM 59.0 °F 37.0 °F 44% 29.93 in 10.0 mi West 11.5 mph - N/A   Overcast
9:53 PM 57.9 °F 37.9 °F 47% 29.94 in 10.0 mi West 10.4 mph - N/A   Overcast
10:53 PM 57.0 °F 37.9 °F 49% 29.95 in 10.0 mi WNW 9.2 mph - N/A   Overcast
11:53 PM 55.9 °F 37.0 °F 49% 29.96 in 10.0 mi West 11.5 mph - N/A   Overcast